This is the latest recevied weather packets stored in our database for station/object K9UO. If no packets are shown the sender has not sent any weather packets the latest 10 day(s).
| Time | Temp. | Humidity | Pressure | Rain* | Wind** | Luminosity | Snow |
|---|---|---|---|---|---|---|---|
| 1777987824 | 13.89° C | 1% | 1006 hPa | 0 mm | - | - | - |
| 1777986919 | 13.33° C | 1% | 1006.3 hPa | 0 mm | - | - | - |
| 1777986008 | 13.33° C | 1% | 1006.1 hPa | 0 mm | - | - | - |
| 1777985106 | 12.78° C | 1% | 1005.6 hPa | 0 mm | - | - | - |
| 1777984205 | 12.78° C | 1% | 1005.8 hPa | 0 mm | - | - | - |
| 1777983304 | 12.22° C | 1% | 1005.7 hPa | 0 mm | - | - | - |
| 1777982477 | 12.22° C | 1% | 1006 hPa | 0 mm | - | - | - |
| 1777981558 | 12.22° C | 1% | 1006 hPa | 0 mm | - | - | - |
| 1777980651 | 12.22° C | 1% | 1005.7 hPa | 0 mm | - | - | - |
| 1777979747 | 12.22° C | 1% | 1005.4 hPa | 0 mm | - | - | - |
| 1777978843 | 12.22° C | 1% | 1005.2 hPa | 0 mm | - | - | - |
| 1777977938 | 12.22° C | 1% | 1005.3 hPa | 0 mm | - | - | - |
| 1777977034 | 12.22° C | 1% | 1004.7 hPa | 0 mm | - | - | - |
| 1777976129 | 12.22° C | 1% | 1004.2 hPa | 0 mm | - | - | - |
| 1777975227 | 12.22° C | 1% | 1003.9 hPa | 0.25 mm | - | - | - |
| 1777974320 | 12.22° C | 1% | 1003.8 hPa | 0.25 mm | - | - | - |
| 1777973415 | 12.22° C | 1% | 1003.1 hPa | 0.25 mm | - | - | - |
| 1777972522 | 12.22° C | 1% | 1003.5 hPa | 0.76 mm | - | - | - |
| 1777971613 | 12.78° C | 1% | 1003.7 hPa | 1.02 mm | - | - | - |
| 1777970703 | 12.78° C | 1% | 1004.1 hPa | 2.03 mm | - | - | - |
| 1777969858 | 13.33° C | 1% | 1005 hPa | 2.54 mm | - | - | - |
| 1777968955 | 12.78° C | 1% | 1005 hPa | 2.29 mm | - | - | - |
| 1777968054 | 12.78° C | 1% | 1004.7 hPa | 2.03 mm | - | - | - |
| 1777967151 | 12.78° C | 1% | 1005.4 hPa | 1.02 mm | - | - | - |
| 1777966259 | 12.78° C | 1% | 1005.9 hPa | 1.02 mm | - | - | - |
* Rain latest hour (hover to see other rain measurements)
** Current wind speed in m/s (hover to see current wind gust speed)